Regional Weather Roundup
Issued by NWS

Home | Current Version | Previous Version | Graphics & Text | Print | Product List | Glossary On
Versions: 1 2 3 4 5 6 7 8 9 10 11 12 13 14 15 16 17 18 19 20 21 22 23 24 25 26 27 28 29 30 31 32 33 34 35 36 37 38 39 40 41 42 43 44 45 46 47 48 49 50
000
ASUS43 KIND 030559
RWRIN

WEATHER ROUNDUP FOR INDIANA
NATIONAL WEATHER SERVICE INDIANAPOLIS IN
200 AM EDT WED JUN 03 2015

NOTE: "FAIR" INDICATES FEW OR NO CLOUDS BELOW 12,000 FEET WITH NO
SIGNIFICANT WEATHER AND/OR OBSTRUCTIONS TO VISIBILITY.

* - STATION DOES NOT REPORT WEATHER SUCH AS PRECIPITATION OR FOG.

+ - STATION NOT QUALITY CONTROLLED BY THE NATIONAL WEATHER SERVICE.
    USE DATA WITH CAUTION...ESPECIALLY DEWPOINT AND RELATIVE
    HUMIDITY OBSERVATIONS.

INZ001>003-010>013-019-020-030700-
NORTHWEST INDIANA

CITY           SKY/WX    TMP DP  RH WIND       PRES   REMARKS
RENSSELAER +   PTCLDY    54  54 100 NE7       30.10  FOG

$$

LMZ046-743>745-030700-
SOUTHERN LAKE MICHIGAN

STATION/POSITION TIME  TEMP    WIND        PRES    WAVE
                       AIR SEA DIR/SP/G            HT
                 (UTC) (F)     (DEG/KT/KT) (MB)    (FT)
BURNS HARBOR     0500          220/  2/  4 1019.6F
MICHIGAN CITY    0500   57      90/  6/  7   N/A
5NW MICH CITY    0500   56 56  120/  8/ 10   N/A     1

$$

INZ004-005-014>016-021>024-030700-
NORTH CENTRAL INDIANA

CITY           SKY/WX    TMP DP  RH WIND       PRES   REMARKS
GOSHEN         CLEAR     53  45  74 CALM      30.12F
6HR MIN TEMP:  51; 6HR MAX TEMP:  69;

SOUTH BEND     FAIR      58  47  66 E7        30.12F
6HR MIN TEMP:  58; 6HR MAX TEMP:  71;


$$

INZ006>009-017-018-025>027-030700-
NORTHEAST INDIANA

CITY           SKY/WX    TMP DP  RH WIND       PRES   REMARKS
ANGOLA *+      CLEAR     52  43  71 CALM      30.13F
FORT WAYNE     PTCLDY    51  45  79 NE5       30.12S
6HR MIN TEMP:  51; 6HR MAX TEMP:  66;


$$

INZ028-029-035-036-043>045-051>053-030700-
WEST CENTRAL INDIANA

CITY           SKY/WX    TMP DP  RH WIND       PRES   REMARKS
CRAWFORDSVL +  CLEAR     50  48  92 CALM      30.08F
6HR MIN TEMP:  50; 6HR MAX TEMP:  65;

GREENCASTLE +  CLEAR     52  46  82 CALM      30.09F FOG
LAFAYETTE      CLEAR     50  49  96 CALM      30.08F
6HR MIN TEMP:  50; 6HR MAX TEMP:  64;

TERRE HAUTE    CLEAR     56  52  86 SE3       30.09F
6HR MIN TEMP:  56; 6HR MAX TEMP:  71;


$$

INZ030>032-037>040-046>048-054>057-064-065-030700-
CENTRAL INDIANA

CITY           SKY/WX    TMP DP  RH WIND       PRES   REMARKS
GREENWOOD *+   CLEAR     54  50  87 CALM      30.10S
INDIANAPOLIS   PTCLDY    57  50  77 SE3       30.07F
6HR MIN TEMP:  54; 6HR MAX TEMP:  63;

-EAGLE CREEK   CLEAR     53  51  93 CALM      30.08F
6HR MIN TEMP:  52; 6HR MAX TEMP:  63;

KOKOMO *+      CLEAR     54  48  82 E5        30.10F
6HR MIN TEMP:  54; 6HR MAX TEMP:  64;

MT COMFORT *+  CLEAR     52 N/A N/A CALM      30.10S
SHELBYVILLE    CLEAR     53  50  89 NW5       30.09S FOG
6HR MIN TEMP:  53; 6HR MAX TEMP:  64;


$$

INZ033-034-041-042-049-050-058-059-030700-
EAST CENTRAL INDIANA

CITY           SKY/WX    TMP DP  RH WIND       PRES   REMARKS
MUNCIE         CLEAR     53  50  89 CALM      30.10S
6HR MIN TEMP:  52; 6HR MAX TEMP:  65;


$$

INZ060-061-067>069-081>083-085>088-030700-
SOUTHWEST INDIANA

CITY           SKY/WX    TMP DP  RH WIND       PRES   REMARKS
EVANSVILLE     CLOUDY    58  56  93 CALM      30.07F FOG
6HR MIN TEMP:  56; 6HR MAX TEMP:  67;

HUNTINGBURG *+ CLOUDY    57  54  88 CALM      30.08F
6HR MIN TEMP:  55; 6HR MAX TEMP:  70;


$$

INZ062-063-066-070>080-084-089>092-030700-
SOUTH CENTRAL AND SOUTHEAST INDIANA

CITY           SKY/WX    TMP DP  RH WIND       PRES   REMARKS
BLOOMINGTON    CLEAR     54  51  90 CALM      30.08F
6HR MIN TEMP:  53; 6HR MAX TEMP:  67;

MADISON *+     CLOUDY    59  52  77 CALM      30.10S
SEYMOUR +      CLOUDY    59  52  77 CALM      30.08F

$$




USA.gov is the U.S. government's official web portal to all federal, state and local government web resources and services.